Weather Roundup
Issued by NWS Springfield, MO

Home | Current Version | Previous Version | Text Only | Print | Product List | Glossary On
Versions: 1 2 3 4 5 6 7 8 9 10 11 12 13 14 15 16 17 18 19 20 21 22 23 24 25 26 27 28 29 30 31 32 33 34 35 36 37 38 39 40 41 42 43 44 45 46 47 48 49 50
000
NZUS99 KSGF 020407
HRRSGF

HOURLY WEATHER
NATIONAL WEATHER SERVICE SPRINGFIELD MO
1100 PM CDT WED OCT 01 2014

......SGF CWA......

CITY           SKY/WX    TMP DP  RH WIND       PRES   REMARKS
SPRINGFIELD    MOCLDY    76  66  71 S14       29.82R
JOPLIN         CLEAR     75  67  76 S13       29.78R
WEST PLAINS    CLEAR     71  67  87 S8        29.90R
ROLLA          MOCLDY    67  62  84 CALM      29.84S
OSAGE BEACH    MOCLDY    66  61  82 E5        29.82S
BRANSON        CLEAR     72  66  83 SE5       29.87R

......SURROUNDING SGF CWA......

CITY           SKY/WX    TMP DP  RH WIND       PRES   REMARKS
CHANUTE        CLEAR     75  68  78 S16       29.73R
PARSONS        LGT RAIN  75  69  81 S7        29.75R
COFFEYVILLE    CLEAR     77  68  73 S14       29.73R
EMPORIA        CLEAR     66  64  93 E6        29.72S
GROVE OK       CLEAR     77  68  73 S6        29.80R
ROGERS AR      MOCLDY    74  67  78 S10       29.84S
SILOAM SPRINGS PTCLDY    75  64  69 S9        29.84R
HARRISON AR    CLEAR     73  68  84 SE6       29.86R
NEAR YELLVILLE CLEAR     75  64  69 SE5       29.85S

......KANSAS AND MISSOURI......

CITY           SKY/WX    TMP DP  RH WIND       PRES   REMARKS
KANSAS CTY INT LGT RAIN  65  65 100 SE9       29.78F
DOWNTOWN KC    CLOUDY    67  65  93 E6        29.77F
COLUMBIA       CLOUDY    66  65  96 E10       29.83F
SEDALIA        CLOUDY    66  63  90 SE10      29.78F
ST JOSEPH      CLOUDY    67  65  93 E3        29.76S
ST LOUIS       NOT AVBL
SPIRIT OF STL  TSTM      69  67  93 E8        29.86S FOG
KIRKSVILLE     CLOUDY    65  64  97 CALM      29.82R FOG
WICHITA        PTCLDY    70  49  47 S9        29.71R
TOPEKA         MOCLDY    65  63  93 E3        29.76R
OLATHE         LGT RAIN  68  66  93 E7        29.78S

......TENNESSEE......

CITY           SKY/WX    TMP DP  RH WIND       PRES   REMARKS
MEMPHIS        PTCLDY    78  62  57 SE8       29.91S
NASHVILLE      CLEAR     70  58  65 S3        29.98S

......ARKANSAS.......

CITY           SKY/WX    TMP DP  RH WIND       PRES   REMARKS
FAYETTEVILLE   PTCLDY    75  68  78 S9        29.84S
FT SMITH       CLEAR     73  68  84 E6        29.81S
LITTLE ROCK    CLEAR     75  68  78 S7        29.86S

......OKLAHOMA.......

CITY           SKY/WX    TMP DP  RH WIND       PRES   REMARKS
TULSA          PTCLDY    79  69  71 S13       29.74R
PONCA CITY     CLEAR     81  66  60 S10G22    29.70R
MCALESTER      CLEAR     79  70  74 VRB6      29.79S
OKLAHOMA CITY  PTCLDY    79  66  64 S13G21    29.74R

......IOWA............

CITY           SKY/WX    TMP DP  RH WIND       PRES   REMARKS
DES MOINES     PTCLDY    65  63  93 CALM      29.80F FOG
QUAD CITIES    CLOUDY    61  58  90 SE3       29.83F FOG

......ILLINOIS........

CITY           SKY/WX    TMP DP  RH WIND       PRES   REMARKS
QUINCY         LGT RAIN  66  64  93 NE7       29.81S
CHICAGO        CLOUDY    65  51  60 SE10      29.90F



USA.gov is the U.S. government's official web portal to all federal, state and local government web resources and services.